This demonstration page uses our WeatherBlox Daily Observations layout. Learn more.

Left ArrowRight Arrow

Hourly Observations for March 11, 2015

Temp ( °F °C ) Dew Point ( °F °C ) Humidity (%) Winds ( mph kmh ) Pressure ( in mb ) Visibility ( mi km ) Precip ( " mm )
12:53 am 00:53 Clear 35 1.7 22 -5.6 59 59 N N/A 29.91 1013 10 16 N/A
1:53 am 01:53 Clear 32 undefined 22 -5.6 66 66 WNW 7 11 29.91 1013 10 16 N/A
2:53 am 02:53 Clear 32 undefined 23 -5 69 69 N N/A 29.91 1013 10 16 N/A
3:53 am 03:53 Clear 34 1.1 25 -3.9 70 70 WNW 3 6 29.89 1012 10 16 N/A
4:53 am 04:53 Clear 33 0.6 25 -3.9 72 72 WNW 3 6 29.88 1012 10 16 N/A
5:53 am 05:53 Clear 30 -1.1 26 -3.3 85 85 SSE 3 6 29.89 1012 10 16 N/A
6:53 am 06:53 Clear 30 -1.1 25 -3.9 82 82 E 3 6 29.92 1013 10 16 N/A
7:53 am 07:53 Sunny 30 -1.1 25 -3.9 82 82 E 5 7 29.93 1014 10 16 N/A
8:53 am 08:53 Sunny 32 undefined 27 -2.8 82 82 SE 5 7 29.93 1014 10 16 N/A
9:53 am 09:53 Sunny 38 3.3 28 -2.2 68 68 N N/A 29.94 1014 10 16 N/A
10:53 am 10:53 Sunny 47 8.3 29 -1.7 50 50 W 5 7 29.93 1013 10 16 N/A
11:53 am 11:53 Mostly Sunny 58 14.4 28 -2.2 32 32 WSW 14 22 29.90 1013 10 16 N/A
12:53 pm 12:53 Sunny 64 17.8 24 -4.4 22 22 SW 15 24 29.87 1011 10 16 N/A
1:53 pm 13:53 Sunny 64 17.8 24 -4.4 22 22 SW 17 28 29.87 1012 10 16 N/A
2:53 pm 14:53 Sunny 63 17.2 26 -3.3 25 25 SW 12 19 29.85 1011 10 16 N/A
3:53 pm 15:53 Partly Cloudy 64 17.8 28 -2.2 26 26 SW 14 22 29.85 1011 10 16 N/A
4:53 pm 16:53 Partly Cloudy 63 17.2 30 -1.1 29 29 SW 13 20 29.85 1011 10 16 N/A
5:53 pm 17:53 Sunny 61 16.1 31 -0.6 32 32 WSW 8 13 29.85 1011 10 16 N/A
6:53 pm 18:53 Sunny 53 11.7 32 undefined 45 45 SW 10 17 29.88 1012 10 16 N/A
7:53 pm 19:53 Clear 50 10 31 -0.6 48 48 WSW 5 7 29.91 1013 10 16 N/A
8:53 pm 20:53 Cloudy 51 10.6 32 undefined 48 48 WSW 7 11 29.93 1014 10 16 N/A
9:53 pm 21:53 Cloudy 50 10 32 undefined 50 50 SW 12 19 29.94 1014 10 16 N/A
10:53 pm 22:53 Mostly Clear 46 7.8 32 undefined 58 58 SW 14 22 29.93 1014 10 16 N/A
11:53 pm 23:53 Clear 46 7.8 32 undefined 58 58 SW 14 22 29.93 1013 10 16 N/A

Powered by AerisWeather